Theta_e
303 306 308 308 307 308 308 308 307 305 307 309 309 310 310 309 309 308 308 303 303 309 304 298 297 292 290 289 287 288 286 285 285 283 283 282 281 281 282 282 282 283 284 285 287 288 289 290 290 291 291 292 293 293 294 295 295 296 296 297 298 299 300 301 303 305 307 308 308 308 308 308 308 308 308 309 310 310 310 309 310 311 311 312 312 312
303 307 307 305 303 304 307 307 306 306 308 309 308 310 308 308 310 306 305 303 302 308 301 294 296 291 289 288 286 286 285 284 283 283 282 281 280 280 280 281 281 282 284 285 287 287 288 289 289 290 291 291 292 292 293 293 293 294 294 295 296 297 298 299 300 301 303 304 304 305 304 304 304 305 306 306 306 307 307 308 308 309 310 310 311 311
304 306 305 300 298 301 304 306 307 306 308 310 308 308 308 308 308 305 304 303 304 308 301 296 297 292 287 287 285 284 283 282 282 281 281 280 280 279 279 280 282 283 284 285 286 287 287 287 288 288 289 289 290 290 290 291 291 292 293 293 294 294 295 296 296 297 298 298 299 300 300 301 301 302 302 302 302 304 305 306 307 308 308 309 309 309
305 305 301 296 297 302 303 304 307 307 306 308 307 308 309 307 306 306 304 302 302 304 301 298 297 291 287 286 284 284 283 282 281 280 280 279 279 278 279 280 282 283 283 284 284 285 285 286 286 287 287 287 288 288 289 289 289 290 290 291 291 292 293 293 294 294 294 294 295 296 297 298 298 299 299 299 300 302 303 304 305 306 306 307 308 308
303 299 296 295 299 302 304 303 305 307 305 303 305 308 309 307 307 307 303 302 302 301 299 300 302 297 291 289 287 284 283 282 281 281 280 279 278 278 279 279 280 281 282 282 283 283 284 284 284 284 285 286 286 287 286 286 287 287 287 288 288 289 290 291 291 292 293 294 294 295 296 297 298 299 300 301 301 300 301 301 302 302 302 304 306 306
301 296 295 298 300 301 304 303 301 305 306 303 304 306 307 308 307 306 303 303 306 304 301 303 310 305 294 291 289 285 284 283 282 281 280 279 278 278 278 278 279 280 280 281 281 281 282 282 282 283 283 284 284 284 284 284 284 284 285 286 286 287 288 288 288 289 291 292 293 294 295 296 296 296 296 296 295 295 296 296 296 297 298 300 302 303
300 296 296 300 301 301 303 301 297 300 306 305 302 301 303 305 305 306 305 305 308 307 302 302 309 308 297 292 289 285 284 283 282 281 280 279 278 278 278 278 278 279 280 280 280 281 281 281 282 282 282 282 282 282 282 282 283 283 284 284 285 285 286 286 286 287 288 289 289 290 290 290 290 290 289 288 288 289 290 291 291 293 294 295 298 299
297 297 298 301 302 302 303 300 296 298 305 304 300 300 301 303 304 306 305 305 307 306 302 301 304 307 304 296 288 286 285 283 282 281 280 279 278 277 277 278 278 279 279 280 280 280 281 281 281 281 281 281 281 281 282 282 282 282 283 283 284 284 284 284 285 285 286 286 286 286 287 287 286 286 285 285 286 287 287 288 289 290 291 292 293 294
294 296 296 299 303 302 300 298 295 297 302 301 298 299 300 301 303 305 305 305 305 304 305 303 302 305 307 296 286 286 287 285 282 281 280 280 278 278 277 277 278 278 279 279 279 280 280 280 280 280 280 280 281 281 281 281 282 282 282 283 283 283 284 283 284 284 284 285 285 285 285 285 285 285 285 285 285 286 286 287 287 288 289 289 290 290
293 294 293 294 298 297 295 294 294 296 300 298 297 299 299 299 301 304 305 305 305 305 306 304 302 305 307 296 288 288 290 288 284 281 280 280 278 278 277 277 277 277 278 278 279 279 279 279 279 280 280 280 280 280 281 281 281 282 282 283 283 283 283 283 283 284 284 284 284 285 285 285 285 285 285 285 286 286 286 286 286 287 287 287 288 288
292 293 293 292 293 292 292 293 293 294 295 295 297 301 303 303 304 305 305 304 305 306 303 302 303 304 306 298 289 288 288 286 283 281 281 280 278 278 277 277 277 277 277 278 278 278 279 279 279 279 280 280 280 280 281 281 281 282 282 282 282 282 283 283 283 283 283 284 284 284 284 284 284 285 285 285 286 286 286 286 286 286 286 286 286 286
293 294 292 291 290 290 292 294 293 293 293 296 301 304 304 304 304 305 305 303 305 305 301 300 300 302 306 299 288 285 283 283 284 282 281 280 279 278 277 277 276 276 277 277 278 278 278 279 279 279 280 280 280 281 281 281 281 282 282 282 282 282 282 283 283 283 283 283 283 283 283 283 283 284 284 284 284 285 285 285 285 285 286 286 286 286
295 294 291 290 290 289 293 297 297 296 297 299 302 303 304 304 303 304 304 302 303 302 297 298 301 302 303 293 284 283 282 282 283 282 281 280 279 277 277 277 276 277 277 277 278 278 278 279 279 280 280 280 281 281 281 281 281 282 282 282 282 282 282 282 282 282 283 283 283 283 283 283 283 283 283 283 283 283 283 284 284 285 285 285 285 286
298 295 291 292 292 288 291 298 300 299 299 299 301 303 304 304 303 303 302 300 301 299 295 297 300 301 301 290 281 281 281 280 281 281 281 280 278 277 277 277 277 277 278 278 278 279 279 279 279 280 280 280 281 281 281 281 281 281 282 282 282 282 282 282 282 282 282 282 282 282 282 282 282 282 282 282 282 282 282 282 283 283 283 284 284 284
301 300 293 291 291 289 289 292 294 295 296 297 297 300 302 304 305 303 302 302 301 298 296 297 299 303 303 290 280 280 280 279 280 279 280 279 278 278 277 277 277 277 278 278 278 279 279 279 279 279 280 280 280 281 281 281 281 281 281 281 281 281 281 281 281 281 281 281 281 281 281 281 282 282 281 282 281 281 282 282 282 282 282 282 283 283
298 298 291 288 287 287 288 288 287 292 297 296 294 298 301 301 303 300 298 299 299 299 299 299 299 295 290 283 278 280 280 279 280 279 279 279 278 277 277 277 277 278 278 278 278 279 279 279 279 279 280 280 280 280 280 281 281 281 281 280 281 281 281 281 281 281 281 280 280 280 281 281 281 281 281 281 281 281 281 281 281 281 281 281 282 282
296 295 289 288 287 285 286 286 285 289 297 297 295 299 296 294 299 300 296 294 296 300 299 300 300 291 286 285 280 279 280 279 279 279 278 278 278 277 277 277 278 278 278 278 278 279 279 279 279 279 280 280 280 280 280 280 280 280 280 280 280 280 280 280 280 280 280 280 280 280 280 280 280 280 280 280 280 280 280 280 280 280 280 281 281 281
295 295 289 288 290 286 284 286 285 285 290 297 299 297 292 292 297 299 299 297 297 300 299 299 299 296 295 293 282 278 280 279 279 279 278 278 278 277 277 278 278 278 278 278 278 279 279 279 279 279 279 279 280 280 279 280 279 279 280 280 280 280 280 280 280 279 279 279 279 279 279 279 279 279 279 279 279 279 279 279 280 280 280 280 280 280
291 297 291 286 288 287 285 287 289 288 287 290 293 291 292 297 299 297 299 300 298 299 300 298 295 295 297 294 285 281 281 280 279 279 278 278 278 278 278 278 278 278 278 278 278 279 279 279 279 279 279 279 279 279 279 279 279 279 279 279 279 279 279 279 279 279 279 279 279 278 278 278 278 278 278 278 278 278 279 279 279 279 279 279 279 280
289 297 295 287 285 286 287 290 292 293 290 288 290 290 290 295 297 296 296 298 298 299 298 297 295 296 294 289 286 284 281 280 280 279 279 279 278 278 279 279 279 278 278 279 279 279 279 279 279 279 279 279 279 279 279 279 279 279 279 279 279 279 278 278 278 278 278 278 278 278 277 277 277 277 277 277 278 278 278 278 278 278 278 278 279 279
287 293 294 290 287 287 288 288 287 288 288 289 293 293 291 292 292 293 293 292 295 299 298 296 298 298 290 283 282 283 282 281 281 280 279 279 279 280 280 280 280 279 279 279 279 279 279 279 279 279 279 279 279 279 279 279 279 279 279 279 279 278 278 278 278 278 278 278 277 277 277 277 277 277 277 277 277 277 277 277 277 277 278 278 278 278
287 290 293 291 290 289 286 283 281 282 283 285 288 288 289 291 292 295 294 288 288 294 294 293 297 296 286 281 282 282 282 282 281 280 280 280 280 281 280 280 280 279 279 279 279 279 279 279 279 279 279 279 279 279 279 279 279 279 278 278 278 278 278 278 278 277 277 277 277 277 276 276 276 276 276 276 276 276 276 276 276 277 277 277 277 277
283 288 293 290 287 285 282 280 279 279 280 282 282 282 284 288 292 297 297 291 287 289 288 288 294 293 283 279 281 281 280 281 281 281 281 281 281 281 281 281 280 280 279 279 279 279 279 279 279 279 279 279 279 279 279 279 279 278 278 278 277 277 277 277 277 277 276 276 276 276 276 276 276 276 276 276 276 276 276 276 276 276 276 276 277 277
283 289 292 288 286 284 282 280 278 277 279 282 281 280 281 283 287 290 290 289 290 290 289 290 293 292 283 278 279 280 280 281 281 282 282 282 281 281 281 281 280 280 280 279 279 279 279 279 279 279 279 279 279 279 279 278 278 278 277 277 277 277 276 276 276 276 276 275 275 275 275 275 275 275 275 275 275 275 275 276 276 276 276 276 276 276
285 288 290 290 289 288 286 285 284 282 281 283 282 279 279 280 281 283 282 284 289 290 291 293 294 292 284 279 279 279 279 280 280 281 282 282 281 281 281 281 281 280 280 280 280 279 279 279 279 279 279 279 279 279 278 278 278 277 277 276 276 276 276 276 275 275 275 275 275 275 275 275 275 275 275 275 275 275 275 275 275 275 275 275 276 276
284 284 288 292 292 291 292 291 289 285 282 282 281 278 278 279 281 285 285 286 290 288 287 293 295 290 283 280 281 280 279 280 280 280 281 281 281 281 281 281 280 280 280 280 280 280 280 279 279 279 278 278 279 279 278 278 277 277 277 276 276 276 275 275 275 275 275 274 274 274 274 274 274 274 274 274 274 274 274 275 275 275 275 275 275 275
282 281 282 289 291 290 290 286 280 280 282 283 282 279 279 278 278 283 287 288 289 286 286 289 289 287 285 282 282 281 280 280 279 279 280 281 281 281 281 280 280 280 280 280 280 280 280 280 279 278 278 278 278 279 278 278 277 276 276 276 276 275 275 275 275 274 274 274 274 274 274 274 274 274 274 274 274 274 274 274 274 274 274 275 275 275
284 283 279 281 284 280 278 277 274 276 281 282 281 280 279 278 277 281 286 286 285 286 287 285 281 284 287 284 282 283 282 280 278 278 280 281 281 281 280 280 279 279 279 279 280 280 280 280 280 279 278 278 278 278 278 277 277 276 276 276 275 275 275 275 274 274 274 274 274 274 274 273 273 273 273 273 273 273 273 273 273 274 274 274 274 274
286 285 276 276 280 274 272 275 274 276 278 278 279 281 279 278 278 280 283 282 282 286 287 282 279 283 286 284 282 282 281 280 280 280 281 281 281 280 279 279 279 279 280 279 280 280 280 280 280 279 278 277 277 278 278 277 276 276 276 275 275 275 275 274 274 274 274 274 273 273 273 273 273 273 273 273 273 273 273 273 273 273 273 273 273 273
281 283 275 275 280 275 273 275 274 276 278 277 279 280 278 279 278 279 281 280 280 282 281 278 279 281 281 282 281 280 280 280 280 281 281 280 280 280 279 279 280 280 280 280 279 280 279 279 279 279 278 277 277 277 277 277 276 275 275 275 274 274 274 274 274 274 273 273 273 273 273 273 273 272 272 272 272 272 272 272 272 272 272 272 272 273
279 281 275 276 280 277 275 275 274 275 277 278 280 279 277 278 277 277 278 277 277 279 278 277 278 278 278 278 278 278 279 279 279 279 280 280 280 280 279 280 280 280 279 279 279 279 279 279 279 278 278 278 277 277 277 276 275 275 275 274 274 274 274 274 273 273 273 273 273 273 272 272 272 272 272 271 271 271 271 271 271 271 272 272 272 272
282 280 275 277 281 279 275 274 276 275 274 276 280 279 277 277 278 278 277 277 278 280 279 278 279 280 279 277 276 277 277 276 277 278 279 280 280 279 279 280 279 279 278 278 278 278 278 278 278 278 278 278 277 277 277 276 275 275 274 274 274 274 273 273 273 273 273 272 272 272 272 272 271 271 271 271 271 271 271 271 270 271 271 271 271 271
278 280 278 278 283 281 274 273 276 276 278 282 283 280 277 277 277 277 277 277 278 279 280 280 281 281 278 276 278 278 276 275 277 278 279 279 279 279 280 279 279 278 278 278 278 278 278 278 278 278 278 277 277 277 276 275 275 274 274 274 274 273 273 273 272 272 272 272 272 272 271 271 271 270 270 270 270 270 270 270 270 270 270 270 270 270
274 280 280 278 283 281 274 273 276 279 284 287 281 276 276 276 277 278 278 278 277 278 279 279 279 279 277 277 279 279 277 277 278 279 279 279 279 279 279 278 278 278 277 278 278 278 278 278 278 278 278 278 277 276 275 274 274 274 274 273 273 273 272 272 272 272 272 272 271 271 270 270 270 270 270 269 269 269 269 269 269 269 269 269 270 270
278 281 278 275 280 281 276 277 281 284 287 283 275 272 274 275 276 277 278 277 276 277 278 278 278 278 277 277 278 279 278 279 278 278 278 278 278 278 278 278 278 277 277 277 277 277 277 277 278 278 278 277 276 275 274 274 274 273 273 273 273 272 272 272 272 271 271 271 271 270 270 270 269 269 269 269 269 269 269 269 269 269 269 269 269 269
280 281 278 276 277 279 279 281 285 288 285 279 274 273 273 275 275 276 278 279 277 276 277 278 278 277 276 276 278 278 278 278 277 277 278 277 278 277 277 277 277 277 277 277 277 277 276 276 276 276 276 275 275 274 274 273 273 273 273 273 272 272 271 271 271 271 271 270 270 270 269 269 269 269 269 268 268 268 268 268 268 268 268 268 269 269
277 280 281 279 276 278 281 283 285 286 283 281 278 275 275 277 277 278 282 283 280 276 275 277 278 276 275 276 277 277 276 276 277 277 278 278 278 277 277 277 277 277 277 276 276 276 276 276 275 275 275 274 274 274 273 273 273 273 272 272 272 271 271 271 271 271 270 270 269 269 269 269 269 269 268 268 268 268 268 268 268 268 268 268 268 268
273 277 281 281 278 278 280 282 284 285 287 287 282 276 276 277 277 277 281 284 281 277 275 277 278 276 275 275 276 276 276 277 279 279 278 278 277 277 277 277 277 276 276 276 276 275 275 275 275 274 274 274 273 273 273 273 273 272 272 272 271 271 271 270 270 270 270 269 269 269 268 268 268 268 268 268 268 268 268 267 267 267 267 268 268 268
274 275 279 281 279 277 280 283 284 285 288 287 280 276 276 277 276 277 282 286 282 276 275 277 277 276 276 275 275 275 276 279 281 280 278 277 277 277 276 276 276 276 276 275 275 275 275 274 274 274 273 273 273 273 272 272 272 272 272 271 271 271 270 270 270 270 269 269 269 268 268 268 268 268 268 268 267 267 267 267 267 267 267 267 267 267
278 277 278 280 280 278 280 282 282 283 284 281 277 276 276 276 277 279 284 289 282 274 274 277 276 276 277 276 275 276 277 280 280 279 277 277 277 276 276 276 276 275 275 275 274 274 274 274 274 274 273 273 273 272 272 272 272 271 271 271 271 270 270 269 269 269 269 269 268 268 268 268 268 267 267 267 267 267 267 267 267 267 267 267 267 267
277 277 275 277 279 278 279 281 281 282 283 279 276 277 276 276 279 282 286 288 281 275 276 278 278 279 278 276 276 277 278 279 279 278 277 277 276 276 276 275 275 275 274 274 274 274 274 274 273 273 273 273 272 272 272 271 271 271 271 270 270 270 269 269 269 269 269 268 268 268 268 267 267 267 267 267 267 267 267 266 266 266 266 266 266 266
277 276 273 274 277 277 278 279 279 282 282 277 275 276 276 278 282 284 284 283 280 278 279 279 279 280 279 278 278 278 278 278 278 277 277 276 276 276 275 275 275 275 274 274 274 274 274 273 273 273 272 272 272 271 271 271 271 271 270 270 270 269 269 269 269 269 269 268 268 268 267 267 267 267 267 267 266 267 266 266 266 266 266 266 266 266
278 278 277 275 275 276 276 276 280 284 282 276 275 277 276 280 284 283 280 279 279 280 280 279 279 279 278 278 278 278 278 278 277 277 277 276 276 276 275 275 275 274 274 274 274 273 273 273 273 272 272 272 271 271 271 270 270 270 270 270 269 268 268 269 269 269 268 268 268 267 267 267 267 266 266 266 266 266 266 266 266 266 265 265 265 265
279 280 281 278 276 278 279 279 282 283 279 276 279 280 278 280 282 281 280 279 279 280 279 279 279 279 278 278 278 277 278 277 277 277 276 276 276 275 275 275 274 274 274 273 273 273 273 273 272 272 272 271 271 271 270 270 270 269 269 269 268 268 268 268 268 268 268 268 268 267 267 267 266 266 266 266 266 266 266 266 266 265 265 265 265 265
280 278 279 280 279 279 281 282 280 277 275 276 280 280 279 279 280 280 280 280 280 280 279 279 279 279 278 278 277 277 277 277 276 276 276 276 276 275 275 275 274 274 273 273 273 273 272 272 272 271 271 271 270 270 270 270 269 269 269 269 268 268 268 268 268 268 268 267 267 267 267 267 266 266 266 266 266 266 265 265 265 265 265 265 264 265
276 273 275 279 280 278 279 279 277 275 275 277 279 280 279 279 279 279 279 280 280 280 279 279 279 279 278 278 277 277 277 277 276 276 276 275 275 275 275 274 274 273 273 273 272 272 272 272 271 271 271 271 270 270 270 269 269 269 268 268 268 268 268 268 268 268 268 267 267 266 266 266 266 266 266 265 265 265 265 265 265 265 265 265 264 264
274 273 275 278 280 280 282 280 276 275 277 277 278 280 280 279 279 279 279 279 279 279 279 278 278 278 277 277 277 277 277 277 276 276 276 275 275 275 274 274 273 273 273 272 272 272 271 271 271 271 271 271 270 270 269 269 269 268 268 267 267 267 267 267 268 268 268 267 267 266 266 266 266 266 266 265 265 265 265 265 265 265 265 264 264 264
276 275 277 279 278 279 281 279 275 274 276 276 277 279 279 279 280 279 279 279 279 278 278 278 278 278 277 277 277 277 277 276 276 276 276 275 275 274 274 274 273 273 272 272 272 271 271 271 271 271 271 271 270 270 269 268 268 268 267 267 267 267 267 267 267 267 267 267 267 266 266 265 265 266 266 265 265 265 265 265 264 264 264 264 263 264
275 275 277 278 277 278 279 278 276 276 277 277 277 278 279 279 280 279 279 279 278 278 278 278 277 277 277 277 277 276 276 276 276 276 275 275 275 274 274 273 273 272 272 272 271 271 271 271 271 271 271 270 270 269 269 268 268 267 267 267 267 267 267 267 267 267 267 267 266 266 265 265 265 265 265 265 265 265 265 264 264 264 264 264 263 263
275 277 276 275 278 280 279 279 279 280 281 281 280 279 279 279 279 279 279 278 278 278 278 278 278 277 277 277 277 276 276 276 276 275 275 275 274 274 273 273 273 272 272 272 271 271 271 271 271 271 270 270 269 269 268 268 267 267 267 267 267 266 267 267 267 267 267 267 266 266 265 265 265 265 265 265 265 265 265 264 264 264 264 264 263 263
276 279 277 278 281 282 280 280 280 280 281 281 280 279 279 279 278 278 278 278 278 278 278 277 277 277 277 277 276 276 276 276 275 275 274 274 274 274 273 273 273 272 272 272 271 271 271 271 271 270 270 270 269 268 268 268 268 268 267 267 266 266 266 267 267 267 267 266 266 265 265 265 265 265 264 264 264 264 265 265 264 264 263 263 263 263
Wind_Speed
3 3 2 3 3 3 3 5 5 4 5 5 5 4 3 3 3 3 2 4 2 6 3 4 9 6 6 6 7 8 11 14 12 12 13 13 16 19 19 18 18 19 18 16 15 15 14 14 14 14 15 15 15 16 16 17 18 19 19 19 19 20 19 17 15 12 10 9 8 9 10 10 10 10 8 7 8 10 11 13 13 12 11 11 11 11
3 3 4 2 1 2 3 6 6 4 5 5 5 4 2 2 3 2 0 4 3 4 2 5 8 6 5 5 6 8 10 11 10 10 11 11 13 15 17 17 16 16 15 14 13 14 13 14 14 14 14 14 15 17 17 18 20 20 20 20 21 21 21 21 21 19 17 16 15 15 15 14 12 11 10 10 12 12 11 12 13 13 12 11 11 10
2 2 4 1 1 2 4 5 6 4 5 4 3 4 1 2 2 2 2 5 5 4 4 5 5 4 4 5 6 8 9 9 9 10 10 10 10 12 15 16 16 15 14 14 14 14 14 14 15 15 15 17 17 18 18 19 19 20 21 21 21 21 21 22 22 22 21 20 19 17 16 15 13 13 13 13 15 14 13 13 14 14 14 12 11 11
2 3 4 2 3 5 5 4 6 5 3 3 3 3 2 2 1 1 2 4 5 3 5 7 4 2 2 4 5 7 8 9 10 11 11 11 11 12 13 15 15 15 15 15 15 15 15 15 15 16 17 18 17 18 19 20 20 21 22 22 22 21 21 21 21 21 20 19 17 16 14 14 13 12 12 11 13 14 14 15 15 15 16 15 14 13
2 2 2 2 3 5 5 4 5 4 1 1 2 4 2 2 3 2 0 2 4 5 6 8 2 1 4 4 3 5 6 7 8 9 11 11 11 12 13 14 14 15 15 15 15 15 15 16 17 18 18 18 18 19 21 22 22 23 23 22 22 22 21 21 20 19 17 15 13 12 10 9 9 9 8 8 12 17 18 18 18 18 18 17 16 15
1 3 1 4 4 5 6 4 2 3 2 1 2 5 5 5 5 2 2 2 4 3 3 6 1 2 3 5 4 4 4 5 6 7 8 8 10 12 13 13 13 13 14 14 15 15 16 17 17 17 18 18 19 21 22 22 22 22 22 22 21 21 21 21 21 20 18 16 15 14 12 12 14 15 15 16 19 22 22 21 21 20 20 18 17 16
2 5 3 4 5 6 6 3 2 1 5 0 2 3 4 5 4 3 4 3 1 2 3 4 2 3 1 3 5 5 4 4 5 6 6 6 7 10 11 12 12 12 13 14 14 15 15 16 16 17 18 19 20 21 21 21 21 21 21 21 21 21 21 21 21 21 20 20 21 20 19 20 22 22 23 23 23 23 22 21 21 21 21 20 19 18
3 6 7 5 5 5 4 3 1 1 5 2 1 4 4 5 5 4 4 3 2 1 1 2 3 1 3 2 4 6 5 3 3 3 4 4 5 7 8 9 11 12 12 13 14 14 15 15 16 17 18 19 19 19 18 19 20 20 20 20 20 20 21 22 21 21 21 22 22 22 21 22 22 23 23 21 21 20 20 20 20 20 21 21 21 20
3 5 5 4 5 4 2 1 1 1 4 1 1 4 4 4 4 3 4 3 0 2 2 3 2 1 4 1 3 5 4 2 3 2 1 2 3 4 6 8 10 11 12 13 13 13 14 14 16 16 17 17 17 17 17 18 19 19 18 19 19 19 20 21 21 21 22 21 21 20 20 21 21 21 20 19 18 18 18 18 19 19 19 20 21 20
2 2 2 2 3 2 1 2 2 1 2 2 3 4 4 4 4 4 4 3 2 1 3 4 4 2 4 2 3 4 4 3 4 4 2 3 3 3 5 7 9 11 11 12 12 13 13 13 14 14 15 15 15 16 17 17 17 17 17 18 18 19 20 20 21 21 21 20 20 20 20 20 20 19 18 17 17 17 18 18 19 20 20 20 20 20
1 2 3 4 3 1 2 3 1 2 0 2 4 4 5 5 4 4 2 4 3 2 3 3 4 3 2 2 2 2 1 2 5 4 4 5 5 4 5 7 9 10 10 11 12 12 12 12 13 12 13 14 14 14 14 14 15 16 17 18 18 19 20 20 20 20 21 21 21 22 22 21 21 20 20 19 19 19 19 19 20 21 20 20 20 20
4 4 2 3 3 3 1 1 1 1 1 3 3 4 4 4 4 4 4 3 2 5 4 4 2 3 3 3 1 3 2 2 3 4 6 7 6 5 6 7 8 9 9 10 10 11 11 11 11 11 11 12 12 12 13 14 15 15 17 17 18 19 20 20 21 21 21 22 22 23 23 23 23 23 23 23 23 23 22 21 21 21 20 20 20 20
4 2 3 3 4 8 3 1 2 3 4 4 4 5 4 1 3 2 2 0 3 5 3 3 2 1 3 2 2 3 2 2 2 5 8 9 9 8 8 7 7 8 9 9 9 9 9 9 9 9 10 10 11 12 12 14 14 15 17 17 18 19 20 21 21 22 22 22 23 23 24 24 25 25 25 25 25 25 25 24 23 23 22 22 21 21
1 2 5 4 3 8 5 2 1 1 2 3 4 4 4 2 1 2 2 0 4 3 2 4 2 1 2 0 2 2 3 3 4 7 9 10 11 10 8 7 7 7 8 8 8 8 7 8 8 8 9 9 10 11 12 13 14 15 16 17 18 19 20 21 22 22 23 23 24 24 24 24 25 25 26 26 26 26 26 26 26 26 25 24 24 23
2 2 3 3 2 6 5 2 2 2 2 1 3 5 4 4 3 4 3 2 3 2 3 4 1 2 2 1 1 1 3 4 6 8 9 9 9 9 8 7 7 7 7 7 7 6 6 6 6 7 7 8 9 10 11 13 14 15 16 18 18 19 20 21 22 22 23 24 24 24 24 25 25 25 26 26 26 26 26 26 26 26 26 25 24 24
2 3 4 2 2 3 3 2 2 2 1 0 2 4 2 3 4 3 3 4 3 1 3 2 2 2 2 1 3 2 3 4 6 7 8 8 8 8 7 7 7 7 7 6 6 5 5 4 5 5 6 7 8 9 11 12 14 15 17 18 19 20 21 22 22 23 24 24 25 25 25 25 25 25 26 26 26 26 27 27 27 27 26 26 25 24
2 2 3 3 2 3 3 3 3 3 1 1 2 2 2 2 5 4 1 1 3 1 2 1 2 2 1 0 2 3 3 3 5 6 7 8 8 8 8 7 7 7 7 6 5 4 3 3 3 3 5 6 8 9 11 13 14 16 17 18 19 20 21 22 23 24 25 25 26 26 26 26 26 26 26 26 26 26 27 27 27 27 27 26 26 25
3 1 3 2 1 3 6 2 2 4 2 3 1 2 1 2 4 4 1 2 2 2 2 1 2 2 1 1 1 2 5 6 6 6 7 8 9 9 9 9 9 8 7 6 5 4 3 2 1 2 4 6 8 9 11 12 14 16 17 18 20 21 22 23 24 25 26 27 27 27 27 27 27 27 27 27 27 27 27 27 27 27 27 28 27 27
3 2 3 2 1 5 7 2 1 5 4 3 2 1 3 2 1 2 2 1 1 2 3 3 3 2 4 3 2 5 8 8 6 6 6 8 11 12 11 10 10 9 9 8 6 5 4 2 1 1 3 5 7 9 10 12 14 15 16 18 20 21 22 23 24 25 26 27 28 28 28 27 27 27 27 27 27 28 28 28 28 28 28 28 28 28
2 3 3 3 1 3 5 3 1 3 4 2 2 3 2 3 3 2 2 2 2 2 2 3 4 3 4 3 5 7 8 7 6 6 6 9 13 13 11 10 10 10 10 9 7 6 5 4 3 2 3 5 6 8 10 11 13 15 16 18 19 20 22 23 24 26 27 27 27 27 27 26 26 26 27 27 27 28 28 28 28 28 28 28 29 29
3 3 2 4 4 1 2 1 2 2 1 2 2 1 1 1 1 1 1 2 3 3 2 1 4 5 3 1 3 5 4 6 7 6 7 11 13 13 11 10 10 11 10 10 9 8 6 6 5 3 3 5 6 8 10 11 13 15 17 18 19 21 23 24 25 26 27 27 27 27 26 26 26 26 27 27 27 28 28 28 29 29 29 29 29 29
1 3 3 1 2 1 1 2 1 2 2 2 2 2 3 2 3 2 2 2 2 2 3 3 4 6 3 0 1 2 1 5 9 9 9 11 13 11 9 9 9 10 11 11 10 9 8 8 6 5 5 6 7 9 10 12 14 15 17 18 20 21 23 24 25 26 27 27 27 26 26 26 27 27 27 27 28 28 28 28 29 29 29 29 29 29
2 4 4 1 2 2 3 2 1 0 1 3 2 1 2 2 4 5 4 3 1 1 1 3 2 6 4 1 1 2 4 5 10 12 11 11 11 9 8 8 8 10 11 11 12 11 10 10 9 8 7 7 8 9 10 12 13 15 17 18 20 22 23 24 25 25 25 25 24 25 25 26 27 28 28 29 29 29 29 30 30 30 30 30 30 30
2 3 4 1 4 3 4 3 2 3 3 2 0 1 2 1 3 5 5 3 3 3 2 2 3 6 4 2 3 4 4 6 12 13 11 11 11 9 8 7 7 9 10 12 12 12 12 12 11 10 10 9 9 9 10 11 13 14 16 18 20 21 22 23 23 23 23 23 23 24 25 26 27 29 30 30 31 31 31 31 31 31 31 31 31 30
1 1 4 3 3 4 5 5 3 3 1 2 2 1 1 2 5 4 2 3 1 4 6 4 5 6 3 2 3 2 2 6 12 13 11 11 11 10 9 6 6 8 10 12 13 13 13 13 13 12 12 11 10 11 11 12 14 15 17 18 20 21 22 23 23 22 22 23 23 25 26 28 30 31 32 33 33 33 33 33 33 33 33 32 32 32
2 1 3 5 3 3 2 2 4 3 2 1 1 2 2 3 6 3 2 3 3 4 5 5 5 4 4 4 2 2 2 4 8 12 12 11 11 11 9 8 9 10 11 12 13 14 15 14 14 14 13 13 12 12 13 13 14 16 17 19 20 21 22 22 22 22 23 24 25 27 29 31 33 34 35 35 35 35 35 35 34 34 34 34 33 33
4 2 2 6 6 5 6 5 3 1 2 2 2 4 3 2 4 5 4 4 5 3 3 6 5 1 5 5 4 5 5 5 6 10 14 14 13 12 10 9 11 12 13 14 15 16 16 16 16 16 15 14 13 13 13 13 14 16 18 19 21 22 22 22 23 23 24 26 28 30 32 33 35 36 37 37 37 37 36 36 35 34 34 34 34 33
5 1 1 5 4 3 5 3 3 1 2 4 4 5 5 3 4 5 5 5 5 5 4 7 5 4 6 7 9 8 6 5 8 13 16 16 15 13 10 12 14 15 16 17 17 17 18 18 18 18 16 15 14 14 14 14 15 16 18 19 20 21 21 22 23 24 26 28 30 32 34 35 37 38 38 39 39 38 37 36 36 35 34 34 33 33
6 2 2 4 2 2 2 2 3 0 1 2 2 5 6 5 7 8 8 6 6 6 5 4 6 6 7 6 7 10 11 12 15 18 17 15 15 13 12 14 15 15 15 16 17 17 18 19 20 20 18 16 14 14 14 14 15 17 18 19 20 20 22 23 24 26 27 29 31 33 36 37 39 40 40 40 39 39 38 36 35 35 34 33 33 32
4 2 2 3 2 3 3 5 3 3 1 2 3 5 6 6 8 7 6 5 6 6 4 5 5 8 8 7 8 12 16 17 17 16 16 16 16 14 14 14 14 13 13 14 14 16 17 19 20 20 20 18 16 15 15 15 16 18 19 19 20 21 23 24 25 27 28 30 33 35 37 39 40 41 41 41 40 38 37 36 35 34 34 33 32 31
3 2 1 3 2 4 5 4 3 4 2 3 5 6 5 4 5 6 5 3 4 6 5 5 4 10 7 10 14 15 15 14 14 16 17 18 19 17 16 15 14 13 13 13 14 15 17 18 19 19 20 19 17 15 15 16 17 18 19 20 21 23 24 25 26 27 29 31 34 36 38 40 41 41 41 40 39 37 36 35 34 33 33 32 31 31
3 3 1 4 2 4 4 4 4 5 3 4 9 10 10 7 5 5 5 5 7 5 3 4 5 8 4 9 10 10 10 12 15 18 19 19 19 17 17 17 16 15 15 15 14 14 15 16 16 17 18 18 17 16 16 17 18 18 20 21 23 24 25 26 27 28 31 33 35 37 39 41 40 40 39 37 37 36 35 34 33 32 32 31 30 30
2 4 2 3 2 4 3 3 3 5 4 5 9 10 13 12 8 4 4 7 9 7 5 5 7 5 3 7 6 5 8 12 16 18 17 16 16 17 19 18 17 17 16 15 14 13 14 15 16 16 16 16 16 16 17 17 18 20 21 23 24 25 26 27 28 30 32 34 37 39 39 39 38 37 36 35 35 34 33 33 32 31 31 30 29 29
2 5 3 3 2 4 5 4 2 2 2 6 5 5 9 11 11 11 7 8 10 8 4 4 3 2 4 7 8 8 10 12 14 15 14 14 15 17 19 18 17 16 14 13 13 13 14 15 16 16 16 15 16 16 17 18 19 21 23 24 25 26 27 28 29 31 34 36 38 38 38 37 36 35 34 33 33 32 32 31 31 30 30 29 28 28
4 5 2 2 4 2 3 4 2 4 7 6 3 2 3 3 7 11 8 6 10 11 9 7 5 5 9 11 12 12 12 11 11 12 13 13 15 17 17 16 14 12 11 11 12 13 14 15 16 16 16 15 15 16 18 19 21 22 24 24 25 26 27 28 30 33 36 37 37 36 35 34 33 33 32 31 31 30 30 29 29 29 29 28 27 27
6 5 3 2 2 2 1 3 3 7 8 3 1 2 1 3 3 3 6 9 12 14 13 12 10 9 11 14 14 11 9 10 12 15 15 14 15 15 15 13 11 11 11 12 13 13 14 15 15 14 14 14 15 17 19 20 21 23 24 25 26 26 28 30 32 34 36 36 34 33 32 32 32 31 31 30 29 29 28 28 28 28 28 28 27 26
5 4 3 2 2 3 2 2 3 6 7 3 1 3 4 4 5 5 2 7 11 15 16 14 11 10 12 13 13 10 8 7 10 13 11 9 11 11 11 11 10 11 13 13 13 13 12 13 13 13 14 16 17 19 20 21 22 23 25 25 26 27 29 31 33 35 35 33 32 31 30 30 30 30 29 29 28 28 27 27 27 27 27 28 27 26
3 1 4 3 2 3 4 2 3 4 5 5 4 5 5 6 8 6 1 4 6 15 24 19 11 10 12 10 10 9 5 1 5 6 3 3 5 6 7 9 10 11 12 12 12 12 12 13 14 15 17 17 18 19 20 21 23 24 25 26 27 29 30 32 33 34 33 31 29 29 28 28 29 29 28 28 28 27 27 26 27 27 27 27 27 26
5 3 3 4 1 2 4 2 2 3 5 6 4 4 5 7 7 3 3 5 6 11 23 22 12 12 14 13 14 12 6 1 5 6 4 3 4 5 6 7 8 10 12 12 13 14 14 15 16 17 18 18 19 20 21 22 24 24 25 26 28 30 31 32 33 32 30 29 27 27 26 27 27 28 27 27 27 27 26 26 26 26 26 26 27 26
5 4 3 3 2 3 4 3 3 5 5 4 4 6 7 6 4 5 2 6 5 7 19 22 17 16 16 16 17 11 6 6 6 6 4 4 6 7 8 8 9 11 13 14 15 16 16 17 18 18 19 19 20 22 22 23 24 25 26 27 29 31 31 31 32 30 28 27 26 25 25 26 27 27 26 27 27 26 25 26 26 26 26 26 26 26
3 3 2 3 3 4 5 3 4 5 5 4 5 11 11 5 4 3 3 7 5 10 18 20 17 16 16 18 18 13 11 12 9 9 8 8 9 10 10 11 12 13 15 16 17 17 18 19 19 19 20 21 22 23 23 24 25 25 26 28 30 30 30 31 31 29 27 26 24 24 24 25 26 26 26 26 26 26 25 25 25 25 26 26 26 26
2 1 1 3 3 3 4 2 3 6 6 8 12 11 9 5 2 5 6 6 11 16 17 16 15 14 15 17 18 16 14 12 12 13 12 12 13 12 13 14 15 16 17 17 18 19 19 20 20 21 22 22 23 23 23 24 25 26 27 29 29 29 30 30 29 28 26 25 23 23 24 24 25 26 25 25 26 26 24 24 24 25 25 26 26 26
5 4 3 3 3 3 2 2 1 6 4 17 20 7 4 5 2 6 11 12 14 17 16 14 14 14 14 16 17 16 14 13 13 15 15 15 16 16 16 17 18 18 19 19 19 20 20 21 22 22 23 23 23 24 24 25 26 27 28 28 27 28 29 28 28 27 26 24 23 22 23 24 24 25 25 25 25 25 25 24 24 24 24 25 26 26
4 4 3 3 3 5 3 3 5 5 10 28 23 4 11 16 5 6 16 16 14 16 15 13 13 13 13 14 14 15 15 15 16 16 16 17 18 18 19 20 20 20 20 20 20 21 21 23 23 23 23 23 24 24 25 26 27 28 28 28 26 27 28 28 27 27 25 23 23 22 22 23 24 24 25 25 25 25 24 24 24 23 23 24 25 26
5 4 4 3 4 5 5 8 7 1 12 34 27 6 10 20 13 8 12 12 12 15 14 12 12 12 13 13 14 15 16 17 16 17 18 18 19 19 20 21 21 21 20 20 20 21 22 23 23 23 23 23 24 25 26 27 28 28 28 27 26 27 28 27 27 26 24 23 22 22 22 23 23 24 24 24 25 25 24 24 25 24 23 23 24 25
4 3 4 2 3 5 9 13 13 7 11 29 33 19 11 14 15 14 13 11 11 12 12 12 12 12 12 13 15 17 18 18 18 18 19 19 20 21 21 22 21 20 20 21 21 21 22 23 23 24 24 24 24 25 26 27 28 28 27 26 27 27 27 27 27 26 24 23 22 21 22 23 23 23 24 24 24 24 24 24 25 24 23 23 24 25
4 6 5 2 2 2 5 7 9 10 14 22 30 30 24 18 17 18 18 17 15 12 12 12 12 12 13 15 17 19 19 19 19 20 21 21 22 22 22 22 21 20 21 21 21 21 23 24 24 25 24 24 24 24 26 27 28 28 27 26 27 27 27 27 26 25 24 23 22 21 21 23 23 23 23 23 23 24 24 24 24 24 24 23 24 25
3 7 5 3 3 3 6 8 6 7 12 17 22 29 32 29 25 23 21 21 20 18 17 16 15 16 17 18 19 20 21 21 21 22 23 23 23 22 22 22 21 21 21 21 21 23 24 25 25 25 25 25 24 24 25 27 27 26 26 26 27 27 27 26 26 25 24 23 22 21 21 23 24 24 24 23 23 23 23 23 23 24 23 22 23 25
7 7 4 3 3 4 10 13 11 9 13 18 22 26 30 31 31 30 27 25 25 24 22 21 20 20 21 22 22 22 23 24 24 24 24 24 24 23 22 22 21 22 22 22 23 24 25 25 25 25 25 25 24 24 26 26 25 25 26 26 27 27 27 26 26 25 24 23 22 21 22 23 24 24 24 24 23 23 23 23 23 23 22 20 21 23
8 4 3 3 2 5 7 7 8 5 8 12 14 16 18 20 23 28 30 30 30 30 29 29 28 27 26 26 25 25 26 27 26 24 24 25 24 23 22 22 22 23 23 23 24 25 25 25 25 26 26 25 24 24 25 24 24 25 25 25 26 26 26 26 26 25 24 23 22 22 22 23 24 24 24 24 24 24 23 22 22 23 22 21 20 21
14 11 9 7 6 7 6 6 9 9 8 7 6 8 9 9 12 17 20 21 22 24 24 26 27 27 27 26 25 25 26 26 24 23 25 25 25 24 23 23 23 24 24 24 25 25 26 26 26 26 26 25 24 24 25 24 24 24 24 24 25 26 26 26 26 25 24 22 22 22 23 23 24 24 24 24 24 24 24 22 21 20 20 21 21 20
Wind_Direction
106 111 159 179 180 183 172 153 143 122 119 126 121 114 132 163 227 252 264 315 64 97 38 82 106 91 70 50 40 49 56 56 54 55 54 49 53 54 55 55 53 53 51 49 47 43 41 37 35 33 33 34 33 32 29 26 27 27 25 23 24 25 24 24 25 23 15 8 2 355 352 353 0 10 15 25 35 41 39 30 28 30 31 31 29 27
96 144 209 204 169 179 150 137 126 97 86 83 106 106 67 181 227 247 194 338 3 92 90 121 105 73 66 56 36 52 59 50 46 54 53 49 52 55 56 57 58 59 57 56 52 49 47 44 41 39 38 37 34 35 34 32 33 31 30 29 29 28 25 25 26 24 20 16 14 10 8 6 4 5 8 17 18 14 13 9 10 13 15 17 18 19
89 194 236 243 162 109 80 103 112 90 85 83 97 110 98 242 245 282 341 7 15 85 150 166 120 76 70 67 53 59 70 67 61 64 63 58 55 53 56 58 61 63 60 59 56 53 51 49 48 45 43 43 41 41 40 39 38 35 34 34 34 32 31 32 30 28 27 24 18 14 15 13 11 9 7 14 15 7 2 2 2 1 1 3 3 7
141 238 273 274 161 113 63 61 102 89 75 94 106 124 200 262 133 253 327 26 27 63 151 158 121 101 112 87 70 70 86 87 77 73 69 67 64 59 60 62 63 63 62 61 58 56 55 54 52 49 48 48 46 45 44 42 40 38 38 37 37 36 35 37 36 36 37 36 28 24 26 23 23 24 19 18 14 7 5 4 2 359 360 0 358 359
153 259 324 57 117 117 91 60 92 116 85 20 151 154 177 210 196 215 310 88 44 40 126 135 100 209 168 162 122 98 104 93 82 78 68 65 70 70 68 67 65 65 65 64 63 61 59 58 57 54 53 50 48 47 45 44 43 42 41 40 40 39 38 38 38 37 37 39 34 30 33 24 18 18 10 5 5 7 10 7 4 4 6 6 2 359
71 325 20 101 77 82 104 75 45 148 145 332 220 180 177 187 203 199 112 105 45 5 182 146 147 265 169 176 163 132 126 96 75 70 63 57 64 69 70 69 70 70 70 69 68 68 66 65 64 61 58 53 52 51 50 48 47 46 44 42 41 41 41 40 39 36 32 29 25 21 22 19 17 20 20 18 15 15 16 15 13 14 14 12 8 5
354 347 36 116 103 79 91 83 355 136 133 182 233 166 160 150 153 161 143 125 75 264 225 157 185 268 261 194 162 145 137 104 82 67 60 51 54 63 69 73 77 78 78 78 76 74 72 70 67 64 61 58 56 55 54 52 49 48 46 42 41 41 40 40 39 37 34 32 31 29 30 31 31 34 36 33 29 27 25 22 20 19 18 16 14 12
344 358 23 52 84 82 80 84 341 120 128 176 219 124 131 138 154 173 147 152 215 261 314 169 168 272 281 224 151 145 134 100 89 71 59 56 54 62 72 80 85 86 87 85 83 80 76 73 70 67 65 62 61 59 55 54 51 48 46 44 42 41 41 40 38 36 35 36 37 35 36 38 37 38 39 36 34 32 29 26 23 21 20 18 18 17
12 15 11 28 65 76 95 111 285 104 112 185 185 118 120 133 147 135 120 148 276 13 286 231 159 293 269 218 127 158 174 185 154 138 129 95 74 77 86 90 94 95 96 94 91 87 81 78 74 71 70 66 64 61 56 54 52 49 47 45 43 42 42 40 37 36 36 36 36 35 36 38 38 37 36 34 32 32 30 28 26 24 22 20 19 19
50 46 21 61 73 74 273 283 251 143 93 152 128 88 66 68 72 70 100 122 53 9 235 214 165 187 263 204 144 187 221 211 163 160 177 137 112 107 103 104 105 103 104 102 98 93 87 83 79 75 72 69 64 61 57 54 52 49 46 43 41 41 40 39 36 35 34 32 32 32 32 33 33 31 29 26 25 25 26 26 26 25 24 22 20 20
4 68 60 63 49 277 267 295 239 183 253 138 108 61 41 30 35 43 48 83 74 273 262 241 188 165 254 243 149 161 194 141 146 156 168 153 139 130 124 122 119 112 111 109 104 100 93 87 83 78 74 69 64 61 57 53 49 46 43 40 39 38 36 35 33 31 30 28 27 27 26 25 25 23 20 18 18 18 18 19 22 22 21 21 20 20
4 39 32 28 22 354 324 359 49 64 51 90 90 79 64 357 9 24 355 48 132 247 280 310 265 162 217 246 93 97 102 116 152 165 165 159 154 151 145 138 131 123 120 117 110 105 99 93 87 81 75 70 65 60 54 50 45 42 41 38 36 34 32 30 28 26 24 23 23 22 21 19 18 17 16 14 14 14 14 14 15 15 14 15 16 15
11 15 331 325 25 27 29 143 29 9 36 76 87 89 96 359 8 11 322 65 216 246 276 315 331 169 230 229 112 114 87 38 79 139 159 160 157 159 156 152 148 139 132 126 119 113 106 98 88 79 73 65 60 54 48 46 41 38 37 34 31 29 27 26 24 22 20 18 18 17 15 15 14 13 12 11 11 10 9 9 8 8 8 8 8 8
340 313 350 357 6 15 28 123 111 329 42 105 131 117 129 129 105 229 242 306 262 263 304 316 332 216 255 104 132 116 75 62 91 126 155 162 162 165 162 164 163 148 142 135 126 119 107 96 85 74 67 59 54 48 43 41 37 34 32 30 28 26 24 22 20 18 16 15 14 12 11 10 9 8 7 6 6 6 5 4 4 3 3 3 3 3
162 256 346 26 330 351 18 80 142 170 107 105 150 123 137 156 157 201 199 196 246 284 320 305 273 206 223 137 211 193 89 108 121 132 149 158 165 166 163 171 171 158 152 145 134 123 108 95 82 70 61 55 50 45 40 37 33 30 27 25 23 21 19 17 16 14 12 11 10 8 7 5 4 4 3 2 1 0 360 359 359 358 358 358 357 358
116 237 266 301 313 1 16 345 20 82 100 306 126 104 129 184 142 141 183 176 169 338 316 264 229 214 147 144 236 204 132 130 140 144 149 157 166 166 168 183 185 175 167 158 149 133 115 97 81 67 56 50 45 40 36 32 29 25 22 20 18 16 14 12 11 9 8 7 5 3 2 1 360 359 357 357 356 355 355 354 353 352 352 352 351 350
107 246 287 328 345 40 16 318 12 49 191 130 98 152 212 171 115 112 209 140 109 218 264 206 247 307 82 204 240 184 175 174 166 165 166 169 174 176 186 202 201 189 180 176 168 152 135 118 88 63 50 43 37 33 29 24 22 20 17 15 13 11 9 7 5 4 2 1 359 358 357 356 355 354 353 352 352 351 350 349 348 347 346 345 345 344
138 181 321 5 168 343 358 343 6 21 87 114 152 211 184 93 91 101 182 12 55 244 265 214 244 270 220 248 299 196 206 206 192 184 183 183 187 196 207 215 212 199 193 195 189 181 175 158 108 55 42 35 30 27 23 20 17 14 11 9 7 5 4 2 1 359 357 355 354 353 352 351 350 349 348 348 347 346 345 344 343 342 342 341 340 339
102 112 300 324 223 316 356 43 290 350 44 113 184 171 95 131 145 92 136 175 184 236 280 306 297 255 212 201 188 206 207 201 192 181 183 192 198 207 216 220 218 208 205 208 206 207 210 212 243 3 22 22 22 18 15 14 10 7 5 3 2 360 359 358 356 355 353 352 351 350 349 348 347 346 344 343 342 342 341 340 339 338 338 337 336 335
76 109 253 290 290 314 0 53 206 317 358 35 33 7 43 135 164 152 144 156 165 196 262 312 322 270 234 208 179 193 195 184 178 178 190 202 206 213 219 221 221 216 214 219 221 224 228 237 259 305 354 1 6 5 4 4 0 359 357 356 355 354 353 352 351 350 350 349 348 348 346 346 345 344 343 341 340 339 338 337 336 335 335 334 333 332
45 102 196 292 330 339 14 45 169 183 321 10 46 349 345 85 125 166 70 84 122 155 192 261 290 265 252 205 160 171 173 174 179 187 198 204 210 218 220 220 221 220 222 228 230 234 238 246 262 289 327 341 346 350 352 351 351 350 349 348 348 347 346 346 345 345 344 344 344 344 343 343 343 343 342 341 340 338 337 336 334 333 332 332 331 330
61 117 153 275 334 128 209 274 190 185 201 153 146 197 173 126 118 131 298 321 99 138 173 168 265 271 259 64 104 121 154 187 184 186 195 205 211 215 215 216 219 221 227 234 238 241 245 252 265 281 303 321 328 336 340 340 341 342 341 342 342 342 342 341 341 340 339 339 339 339 339 340 340 340 339 339 338 337 336 335 334 332 331 330 329 329
145 101 93 171 237 215 250 279 105 152 162 128 126 144 129 124 118 136 209 239 120 116 140 116 267 277 272 247 245 278 281 229 193 188 195 202 204 202 203 209 216 226 233 239 245 248 248 256 265 272 287 300 311 322 327 329 332 334 335 337 337 338 338 338 337 337 336 336 335 336 337 337 337 337 336 336 335 335 335 334 333 332 331 330 329 328
142 87 82 299 298 313 315 326 37 26 48 119 208 66 109 151 116 139 184 175 141 174 143 89 271 271 276 260 258 279 276 214 192 193 196 196 196 195 196 205 220 236 244 248 253 256 253 259 265 268 276 285 295 309 316 320 325 328 331 332 334 335 335 334 334 334 333 334 334 335 335 335 335 335 334 334 333 332 332 331 331 330 329 329 328 327
189 128 105 80 357 340 341 342 338 340 35 168 222 119 98 89 98 114 144 94 168 207 153 151 238 255 282 314 304 283 205 180 188 194 197 196 199 200 199 213 235 246 256 259 262 264 263 264 266 268 272 278 289 302 310 317 321 325 328 330 331 332 331 330 330 330 330 331 332 333 333 333 333 333 333 332 331 330 329 328 328 327 326 326 326 325
127 134 115 121 148 207 240 256 252 250 204 194 230 179 155 120 127 140 111 116 231 228 155 173 227 265 297 307 297 254 210 192 193 196 202 204 205 209 214 231 248 254 262 266 267 269 270 270 268 266 268 274 283 294 303 310 316 320 324 326 327 326 326 326 325 326 327 328 329 331 331 331 331 331 331 330 329 328 327 327 325 324 324 323 323 323
105 75 84 133 154 184 192 210 241 221 153 190 200 176 173 149 132 116 112 168 197 168 189 218 190 181 279 257 235 244 228 212 211 205 208 211 211 216 227 248 262 264 263 265 268 270 271 273 272 268 265 268 274 283 294 302 309 314 318 320 321 320 320 320 320 322 324 325 327 328 328 329 329 329 328 328 327 326 325 324 323 322 321 320 320 320
103 83 130 119 119 203 191 207 297 346 184 194 183 182 184 172 144 144 173 205 165 139 250 255 175 167 248 225 212 230 223 214 225 216 213 217 218 221 242 264 267 264 261 262 264 267 270 273 274 272 268 265 269 278 287 296 303 309 312 313 314 314 314 315 316 318 320 321 323 325 326 327 326 326 326 325 324 324 323 322 320 319 319 318 318 318
110 150 203 119 70 287 228 279 306 341 204 216 195 200 190 174 181 192 211 212 168 173 233 226 167 198 240 229 214 216 208 209 216 215 216 221 219 227 257 269 265 260 259 260 261 265 269 271 273 274 272 268 268 276 285 293 300 305 307 308 309 309 310 311 312 314 316 319 321 323 324 324 324 323 323 322 321 321 320 319 318 318 317 317 317 316
107 149 184 117 78 334 329 316 327 46 24 280 246 223 202 192 201 214 232 212 194 228 225 155 186 242 243 229 229 223 216 216 219 222 226 222 222 240 263 263 257 256 256 259 263 267 269 271 273 275 274 272 270 275 283 290 297 301 303 304 305 306 307 307 308 311 313 317 319 320 321 321 321 321 320 320 319 319 318 318 317 316 316 316 316 315
76 138 164 100 74 321 331 345 9 44 36 279 269 253 219 206 222 234 242 200 200 259 248 163 239 274 243 208 224 233 226 223 228 234 233 229 233 249 256 249 247 252 257 264 268 269 270 272 274 275 276 276 274 274 281 288 294 297 299 301 302 302 303 304 306 309 313 316 318 318 319 318 318 318 318 318 318 317 318 317 316 316 315 315 315 314
70 101 74 75 81 280 325 16 349 354 7 279 269 252 217 200 211 220 216 193 186 203 182 157 241 270 222 181 206 224 212 210 224 231 234 236 240 244 242 239 244 254 262 269 269 269 270 270 272 276 279 279 275 274 281 286 291 295 297 299 299 299 300 302 305 309 312 315 316 316 317 317 317 317 317 317 317 317 317 317 316 316 315 314 314 313
107 130 145 108 138 256 314 21 338 352 358 276 259 235 207 199 206 222 233 219 200 167 139 182 226 246 173 156 170 192 198 208 221 226 229 234 235 235 236 240 251 261 266 268 265 263 265 266 270 275 278 277 273 274 280 285 289 293 296 297 298 298 299 301 305 309 312 314 315 316 317 317 316 317 316 317 317 317 317 317 316 316 315 314 314 314
107 116 148 136 127 252 290 329 332 351 295 252 241 210 201 201 204 211 220 213 199 189 196 231 237 185 156 166 176 190 200 211 224 228 229 233 233 234 239 247 258 264 263 261 259 260 262 264 267 270 271 271 270 273 279 284 289 292 293 295 296 296 298 301 305 310 312 313 315 316 317 316 316 316 316 317 317 317 318 317 317 316 315 315 314 314
115 98 127 125 106 181 300 10 33 244 242 234 233 215 197 191 201 214 240 239 205 212 234 249 240 203 192 193 191 194 207 221 234 237 234 236 238 240 245 252 257 258 255 256 259 262 263 264 265 266 265 266 269 274 281 286 289 291 292 293 294 295 297 302 307 310 311 313 315 316 316 316 316 316 316 318 318 318 318 317 317 317 315 315 315 315
138 128 126 106 116 166 96 86 169 247 256 240 293 283 141 90 115 192 272 261 218 208 220 230 229 212 202 208 208 212 232 245 252 251 245 244 245 246 250 255 256 255 257 262 266 267 267 266 265 264 265 268 274 279 284 288 289 290 291 292 293 295 298 304 308 309 310 313 315 316 315 315 315 316 317 318 318 318 318 318 317 317 316 315 315 316
129 140 118 104 183 163 137 196 250 300 312 306 258 228 184 159 156 149 255 264 223 200 202 216 230 214 202 214 223 227 239 254 269 269 258 247 247 248 253 258 257 259 263 268 269 268 268 269 268 271 274 277 281 284 286 288 289 289 291 291 293 296 300 305 307 308 310 314 315 315 315 315 314 315 316 317 318 318 319 318 318 318 317 317 316 317
88 153 152 154 196 119 97 311 312 334 301 267 242 226 202 195 192 165 108 298 245 200 195 201 219 207 192 198 204 197 190 262 288 272 224 202 238 246 254 256 255 259 262 264 266 267 270 273 274 277 279 280 283 285 286 288 288 289 290 291 293 297 302 305 306 308 311 313 314 315 315 314 313 314 315 316 317 319 320 319 319 319 318 317 317 317
38 24 100 110 120 112 112 168 222 226 243 248 246 233 203 198 198 130 40 302 276 202 192 194 203 198 188 184 179 165 138 156 262 258 224 211 254 257 262 261 255 258 261 264 271 274 274 276 277 278 280 282 284 286 285 286 287 287 289 291 294 298 302 304 305 307 311 313 314 315 314 312 312 313 314 315 316 318 320 319 319 319 318 317 317 317
30 19 53 106 169 168 140 175 229 240 243 252 239 207 185 184 162 81 32 273 268 186 185 189 195 198 193 184 173 162 170 206 241 280 268 254 271 270 270 270 263 265 270 273 275 276 276 278 279 280 282 284 285 284 285 285 285 286 289 291 295 299 302 303 304 307 309 311 313 314 312 311 311 312 313 314 315 317 319 318 318 318 317 317 317 317
26 20 66 138 166 176 179 219 274 265 242 231 196 181 170 145 96 103 218 234 193 164 180 188 193 198 194 183 179 191 224 232 247 279 277 273 278 273 271 274 272 274 277 276 276 277 277 279 280 281 283 284 284 284 284 284 284 286 288 291 295 299 301 301 303 306 308 311 313 312 310 309 310 311 312 313 313 315 317 317 317 317 317 317 317 317
140 79 112 137 140 158 174 212 295 286 250 176 156 164 160 137 176 211 198 173 159 160 169 179 188 194 197 198 204 222 245 251 255 265 268 271 273 271 272 275 276 278 278 276 276 276 277 278 278 280 282 284 283 283 282 282 283 286 288 291 296 299 299 300 302 303 306 310 311 309 308 308 308 309 310 311 312 313 315 316 316 316 317 317 317 317
169 157 182 191 164 136 80 79 236 289 228 146 135 137 186 177 213 189 160 147 155 163 166 177 188 196 205 215 226 238 250 254 252 256 260 263 265 268 272 274 277 279 278 276 275 275 275 276 277 280 283 283 282 282 281 281 284 286 288 292 296 297 296 298 300 301 304 308 308 307 306 305 306 307 308 309 310 312 314 314 314 315 316 316 316 317
194 170 185 225 185 143 125 181 205 262 186 161 151 159 210 200 197 147 158 165 169 171 178 191 201 209 218 228 238 244 249 253 253 255 258 260 263 267 271 275 278 279 277 275 274 274 274 276 279 281 282 281 280 281 281 283 285 286 289 293 296 294 295 296 297 299 303 305 305 304 303 303 304 305 305 307 308 309 311 312 312 314 315 314 315 316
222 187 163 192 201 179 198 218 220 270 179 180 184 218 215 205 207 174 169 185 189 189 200 212 218 226 232 239 247 249 252 256 258 259 261 263 267 269 272 276 279 278 278 276 273 274 276 278 281 280 279 279 279 281 283 285 286 287 290 293 294 292 294 295 295 298 301 302 302 302 301 301 302 302 302 304 306 307 309 310 310 312 313 313 314 315
222 164 135 158 248 262 261 246 235 243 212 199 204 218 227 218 217 206 201 210 208 209 222 232 240 246 244 246 251 254 259 264 265 267 268 268 272 273 275 278 279 278 278 276 275 277 278 278 278 278 278 280 280 282 284 285 285 287 290 292 291 291 292 293 294 297 299 299 300 299 299 299 298 299 300 302 303 305 306 307 308 309 311 313 313 313
217 176 177 224 274 265 265 250 223 225 230 217 215 222 231 235 232 224 223 226 225 227 235 240 248 252 247 249 255 259 266 270 269 271 273 273 275 277 277 279 280 278 278 278 277 277 276 276 278 279 280 282 282 284 285 284 284 287 289 289 290 290 291 291 293 295 296 297 299 298 297 296 295 296 297 299 300 302 303 304 306 307 310 312 311 311
176 165 182 212 197 205 254 261 250 246 248 238 230 231 234 236 238 238 237 236 235 238 242 244 247 250 251 256 261 264 270 271 269 273 276 276 277 278 278 279 280 279 279 278 276 276 276 277 279 280 281 284 285 285 283 282 284 286 286 287 288 289 290 291 292 293 294 295 297 297 295 294 293 294 296 297 298 299 300 301 303 304 307 311 310 309
135 159 189 190 195 269 282 268 258 274 278 262 249 244 242 242 244 246 247 248 247 248 250 252 253 256 259 264 265 265 268 271 272 275 277 277 278 278 278 280 280 279 278 277 277 277 277 279 280 281 283 285 286 285 282 282 283 283 283 285 287 287 288 289 290 291 293 294 296 296 294 292 293 294 295 296 296 297 298 299 301 302 305 307 307 307
136 178 190 128 205 263 266 238 210 225 274 270 260 260 258 252 249 249 251 254 255 258 261 262 263 264 264 266 267 266 268 272 275 276 276 277 278 278 279 280 279 278 278 277 277 278 278 280 281 282 284 287 287 285 282 280 279 280 282 284 285 285 286 287 288 290 292 294 295 295 292 291 292 293 294 295 296 296 296 297 298 300 303 305 305 306
195 206 184 173 217 240 232 212 204 217 251 274 277 275 271 256 249 252 254 257 260 263 265 267 267 266 265 266 268 268 269 272 275 274 274 276 276 277 278 278 278 278 279 277 277 278 279 281 282 283 286 288 286 281 279 278 279 281 283 283 283 283 284 286 287 289 292 294 294 292 291 291 291 292 293 294 295 295 295 295 294 295 299 302 303 303